星链-31204 (STARLINK-31204 )

导读 | 星芒AI

STARLINK-31204 是 SpaceX Starlink 项目中的一颗低轨通信卫星,属于第三代星链卫星(Starlink V1.5 或 V2)。它于 2023 年发射,部署在约 550 公里的轨道高度,用于提供全球宽带互联网服务。该卫星采用先进的相控阵天线和激光通信技术,提升数据传输速度与网络稳定性。作为 Starlink 卫星群的一部分,STARLINK-31204 支持偏远地区的高速互联网接入,推动全球数字连接。

基本信息
目录编号:
58731
目录名称:
STARLINK-31204
国际标识:
2024-005D
轨道中心:
EARTH
卫星名称:
星链-31204
卫星全名:
星链-31204 (STARLINK-31204 )
卫星状态:
已陨落 最后检测时间 2025-09-13
发射日期:
2024-01-07 UTC
国别 :
美国 (US)
星等 :
--
轨道信息
数据来源 国际轨道数据
星历时间: 2025-09-12T21:17:06+0800
轨道信息已过期49天
半长轴: 6590.54km
偏心率: 0.0031709
轨道倾角: 42.984°
近地点辐角 316.291°
升交点赤经 42.651°
平近点角 43.546°
近地点: 191.507km
远地点: 233.303km
周期: 88.744分钟
每日圈数: 16.226368
详细信息
固有亮度:
5
最大亮度:
0.3
卫星平台:
Starlink v2.0 mini
覆盖范围:
全球
运营商:
太空探索技术公司
运营商所在国:
美国
制造商(研发单位):
太空探索技术公司
制造商所在国:
美国
使用方式:
暂无
卫星简介
星链(Starlink)计划是由太空探索技术公司(SpaceX)提出的一个巨型低轨卫星互联网星座项目,计划在2019年至2024年间在太空搭建由约1.2万颗卫星组成的“星链”网络,其中1584颗将部署在地球上空550千米处的近地轨道,并从2020年开始工作。该卫星仍在工作。